metlocid,date_time,avg_airt3m,std_airt3m,min_airt3m,max_airt3m,n_airt3m,avg_airtdel3m1,std_airtdel3m1,min_airtdel3m1,max_airtdel3m1,n_airtdel3m1,n_comments
HOEM,11/1/87,-4.543406091,3.224642033,-12.62,3.19,229,,,,,0,0
HOEM,12/1/87,0.115913981,2.383203922,-5.8,6.52,372,,,,,0,0
HOEM,1/1/88,-0.622204299,2.394278322,-6.23,6.66,372,,,,,0,0
HOEM,2/1/88,-8.306522984,6.622598725,-21.54,9.91,348,,,,,0,0
HOEM,3/1/88,-20.76814516,5.596012022,-32.29,-7.15,372,,,,,0,0
HOEM,4/1/88,-22.30694447,7.924788263,-36.65,-5.51,360,,,,,0,0
HOEM,5/1/88,-22.16370969,6.676555372,-35.27,-8.06,372,,,,,0,0
HOEM,6/1/88,-22.58969448,7.829654179,-36.14,-7.59,360,,,,,0,0
HOEM,7/1/88,-26.94913975,7.256185154,-39.43,-4.86,372,,,,,0,0
HOEM,8/1/88,-19.11647852,7.964444426,-36.07,-1.93,372,,,,,0,0
HOEM,9/1/88,-22.61608327,6.53414659,-35.17,-8.92,360,,,,,0,0
HOEM,10/1/88,-11.87330643,6.981598294,-30.22,-0.2,372,,,,,0,0
HOEM,11/1/88,-7.175277779,4.953515381,-20,3.86,360,,,,,0,0
HOEM,12/1/88,-2.23313044,2.368337868,-9.05,4.52,230,,,,,0,0
HOEM,1/1/89,-1.606559139,1.999129817,-6.75,3.5,186,,,,,0,0
HOEM,2/1/89,-9.762619064,3.99444729,-23.83,-2.1,168,,,,,0,0
HOEM,3/1/89,-16.83790328,4.092873358,-27.84,-7.53,186,,,,,0,0
HOEM,4/1/89,-20.7788334,10.02563044,-40.93,0.19,180,,,,,0,0
HOEM,5/1/89,-27.19634406,7.017179119,-39.4,-9.69,186,,,,,0,0
HOEM,6/1/89,-33.28761111,6.480343953,-41.89,-17.41,180,,,,,0,0
HOEM,7/1/89,-24.93392472,6.771535889,-42.8,-8.8,186,,,,,0,0
HOEM,8/1/89,-29.36612895,8.850946614,-43.48,-0.52,186,,,,,0,0
HOEM,9/1/89,-24.38205562,10.13341904,-39.74,-3.58,180,,,,,0,0
HOEM,10/1/89,-15.29053762,4.401337208,-28.57,-5.5,186,,,,,0,0
HOEM,11/1/89,-7.571611118,3.885047822,-19.93,0.06,180,,,,,0,0
HOEM,12/1/89,-1.170698935,2.001897502,-7.13,3.87,186,,,,,0,0
HOEM,1/1/90,-1.742903227,1.797844106,-7.89,2.31,186,,,,,0,0
HOEM,2/1/90,-9.410000006,3.863869021,-19.51,-2.25,168,,,,,0,0
HOEM,3/1/90,-17.15833335,6.105595785,-29.33,-3.52,186,,,,,0,0
HOEM,4/1/90,-22.86916664,8.042021212,-38.93,-6.64,180,,,,,0,0
HOEM,5/1/90,-25.00365588,7.129570577,-37.3,-7.26,186,,,,,0,0
HOEM,6/1/90,-26.16205555,7.81679901,-39.03,-7.1,180,,,,,0,0
HOEM,7/1/90,-28.11763445,5.94709257,-43.14,-8.36,186,,,,,0,0
HOEM,8/1/90,-29.86086024,9.462969482,-47.71,-8.42,186,,,,,0,0
HOEM,9/1/90,-29.41544449,7.075809141,-39,-10.45,180,,,,,0,0
HOEM,10/1/90,-19.90913979,6.157942034,-34.14,-4.22,186,,,,,0,0
HOEM,11/1/90,-6.997722222,6.652954625,-19.46,5.83,180,,,,,0,0
HOEM,12/1/90,-0.821505376,3.905117077,-12.34,4.95,186,,,,,0,0
HOEM,1/1/91,-1.708978494,2.410083667,-7.67,3.38,186,,,,,0,0
HOEM,2/1/91,-4.973273815,2.362410346,-12.84,0.35,168,,,,,0,0
HOEM,3/1/91,-18.55129028,6.197793481,-31.64,-6.66,186,,,,,0,0
HOEM,4/1/91,-21.28450007,6.85038019,-33.43,-7.08,180,,,,,0,0
HOEM,5/1/91,-26.19021504,9.523220644,-40.35,-3.3,186,,,,,0,0
HOEM,6/1/91,-22.15933337,8.232460121,-34.51,-2.01,180,,,,,0,0
HOEM,7/1/91,-28.1640323,7.066514078,-40.77,-8.94,186,,,,,0,0
HOEM,8/1/91,-29.16037642,6.036480305,-40.15,-12.55,186,,,,,0,0
HOEM,9/1/91,-20.80222216,8.538466608,-36.22,-4.99,180,,,,,0,0
HOEM,10/1/91,-18.13327955,4.813293782,-28.49,-4.16,186,,,,,0,0
HOEM,11/1/91,-7.387222224,4.047630642,-18.97,-1.72,180,,,,,0,0
HOEM,12/1/91,-0.143010758,2.337965987,-5.52,5.83,186,,,,,0,0
HOEM,1/1/92,-1.841236563,2.476637239,-8.25,4.2,186,,,,,0,0
HOEM,2/1/92,-9.926436764,3.950447512,-21.4,-1.82,174,,,,,0,0
HOEM,3/1/92,-16.28602154,6.925313878,-31.96,-0.38,186,,,,,0,0
HOEM,4/1/92,-26.84422224,6.662302783,-36.09,-10.03,180,,,,,0,0
HOEM,5/1/92,-26.75892473,5.237399241,-36,-8.31,186,,,,,0,0
HOEM,6/1/92,-27.07766665,7.680222789,-36.27,-8.35,180,,,,,0,0
HOEM,7/1/92,-22.91946232,6.751730635,-34.18,-5.65,186,,,,,0,0
HOEM,8/1/92,-27.43059139,9.389940466,-43.5,-4.74,186,,,,,0,0
HOEM,9/1/92,-25.24772216,10.55858046,-42.05,-1.04,180,,,,,0,0
HOEM,10/1/92,-20.66048386,7.01164547,-36.88,-3.86,186,,,,,0,0
HOEM,11/1/92,-8.450722256,4.84083612,-20.87,3.44,180,,,,,0,0
HOEM,12/1/92,-2.530540545,2.201674695,-6.77,2.99,185,,,,,0,1
HOEM,1/1/93,-1.782688168,2.291147781,-6.82,3.84,186,,,,,0,0
HOEM,2/1/93,-7.105654737,2.860727588,-13.63,1.15,168,,,,,0,0
HOEM,3/1/93,-17.63537638,8.426058658,-30.82,3.96,186,,,,,0,0
HOEM,4/1/93,-21.52744441,7.504206365,-34.06,-6.07,180,,,,,0,0
HOEM,5/1/93,-29.76774203,6.597569546,-40.54,-12.23,186,,,,,0,0
HOEM,6/1/93,-22.97605548,8.411231389,-39.53,-7.38,180,,,,,0,0
HOEM,7/1/93,-22.8708064,6.557046281,-35.93,-9.59,186,,,,,0,0
HOEM,8/1/93,-32.77827953,8.79474477,-45.45,-4.27,186,,,,,0,0
HOEM,9/1/93,-25.57344446,6.731214964,-37.57,-9.48,180,,,,,0,0
HOEM,10/1/93,-21.24268826,9.220826455,-35.65,-3.93,186,,,,,0,0
HOEM,11/1/93,-8.096444446,4.499400672,-20.25,0.17,180,,,,,0,0
HOEM,12/1/93,-3.216045052,2.266274874,-8.41,4.71,1909,0.258088467,0.592343473,-3.98,2.03,1899,0
HOEM,1/1/94,-0.697647059,1.921496865,-10.1,6.42,2414,0.303595691,0.515768586,-1.77,2.04,2414,0
HOEM,2/1/94,-12.75062495,6.805037244,-28.72,-1.34,224,-0.394241072,0.441560986,-1.83,0.62,224,1
HOEM,3/1/94,-24.86104842,5.738768499,-36.79,-12.92,248,-0.502258063,0.298302451,-1.18,0.06,248,0
HOEM,4/1/94,-20.56649995,6.031299565,-32.92,-6.05,240,-0.496875,0.278361586,-1.27,0.04,240,0
HOEM,5/1/94,-30.11326608,6.305235579,-42.32,-14.69,248,-0.468548387,0.309055486,-1.34,0.06,248,0
HOEM,6/1/94,-25.40304163,7.198459198,-39.91,-8.59,240,-0.518166667,0.268619541,-1.12,-0.03,240,0
HOEM,7/1/94,-27.107258,9.443204928,-41.59,-1.05,248,-0.566653225,0.232658655,-1.12,0.13,248,0
HOEM,8/1/94,-31.53625001,8.522328334,-42.89,-9.81,248,-0.642258064,0.241165654,-1.23,-0.15,248,2
HOEM,9/1/94,-30.80620836,5.998343408,-39.33,-9.79,240,-0.669708332,0.331372698,-1.5,0.1,240,0
HOEM,10/1/94,-18.29536287,6.206715042,-32.51,-3.75,248,-0.49108871,0.348998602,-2.34,0.22,248,0
HOEM,11/1/94,-9.735513837,2.284486149,-15.75,2.38,1012,-0.052420948,0.22860686,-1.05,0.77,1012,12
HOEM,12/1/94,-3.12262545,2.340506636,-10.33,3.96,2232,0.08702509,0.170627873,-1.54,1.05,2232,0
HOEM,1/1/95,-3.109107228,1.889702553,-7.61,3.31,2229,0.105594437,0.237240207,-1.4,0.91,2229,0
HOEM,2/1/95,-7.200064485,4.723115528,-17.63,5.59,2016,-0.035441469,0.278129347,-2.01,1.26,2016,0
HOEM,3/1/95,-21.34666667,6.591240611,-33.85,-5.27,2232,-0.395918458,0.367865733,-3.16,1.04,2232,0
HOEM,4/1/95,-27.21856946,7.598420849,-42.31,-7.09,2160,-0.422273147,0.259860063,-1.69,0.12,2160,0
HOEM,5/1/95,-28.11770167,7.659380737,-40.25,-6.8,2232,-0.424507168,0.327204763,-2.07,0.17,2232,0
HOEM,6/1/95,-25.4355278,8.762541206,-41.9,-3.36,2160,-0.547949074,0.305346836,-1.97,0.23,2160,0
HOEM,7/1/95,-28.40487905,6.103677898,-38.89,-6.27,2232,-0.583207885,0.321656146,-1.97,0.09,2232,0
HOEM,8/1/95,-25.53655469,7.880890678,-39.14,-3.22,2232,-0.511765232,0.275552372,-1.75,0.14,2232,0
HOEM,9/1/95,-26.73821302,9.814428619,-43.98,-7.93,2160,-0.441486111,0.291020731,-1.72,0.2,2160,0
HOEM,10/1/95,-18.06576612,4.81112271,-29.4,-5.19,2232,-0.373109318,0.354006599,-2.62,1.44,2232,0
HOEM,11/1/95,-6.927974689,5.465033873,-23.53,3.6,2212,-0.105911602,0.277654679,-1.5,1.34,1991,3
HOEM,12/1/95,-0.857983871,2.138958634,-8.48,6.5,2976,0.03059375,0.219982809,-0.74,0.7,320,0
HOEM,1/1/96,-2.11874197,2.268506205,-8.16,4.94,2957,0.08777139,0.208260088,-1.57,1.24,2957,0
HOEM,2/1/96,-6.889608475,5.233291052,-18.36,4.09,2784,0.044471983,0.256353561,-1.58,2.12,2784,0
HOEM,3/1/96,-16.8363172,6.270653665,-27.85,3.65,2976,0.195698925,0.254276199,-1.74,2.55,2976,0
HOEM,4/1/96,-19.02209723,6.891276493,-31.53,-1.31,2880,0.327006944,0.256952102,-0.11,1.75,2880,0
HOEM,5/1/96,-26.40985551,7.157941064,-39.8,-8.96,2976,0.399237231,0.283781173,-0.12,1.67,2976,0
HOEM,6/1/96,-26.81038887,7.238674272,-38.12,-6.34,2880,0.387833333,0.241494622,-0.09,1.89,2880,0
HOEM,7/1/96,-27.35579971,8.169996037,-41.19,-7.07,2976,0.451528898,0.260751946,-0.11,1.73,2976,0
HOEM,8/1/96,-21.29391466,8.496332897,-34.39,1.66,2976,0.455194892,0.289531111,-0.1,1.74,2976,0
HOEM,9/1/96,-25.93945139,4.631173798,-35.91,-12.38,2880,0.552440972,0.316661521,-0.35,2.17,2880,0
HOEM,10/1/96,-20.68612566,6.160620766,-33.49,-7.66,2976,0.353205645,0.419764327,-2.53,3.63,2976,0
HOEM,11/1/96,-7.239885413,5.191913198,-22.74,5.45,2880,-0.018944444,0.289664615,-1.79,2.14,2880,0
HOEM,12/1/96,-0.917906586,1.734791863,-5.74,4.47,2976,-0.020047043,0.225322173,-1.21,1.21,2976,0
HOEM,1/1/97,-2.782780766,2.427902848,-7.61,3.6,2974,-0.001802287,0.265873487,-1.14,3.02,2974,0
HOEM,2/1/97,-10.51147694,4.45156956,-20.48,-1.11,2688,0.093869048,0.285863145,-1.24,1.74,2688,0
HOEM,3/1/97,-22.96328293,4.802661261,-33.24,-8.11,2976,0.423175403,0.391969511,-1.64,2.61,2976,0
HOEM,4/1/97,-27.85054512,6.816646937,-42.31,-5.7,2880,0.415222222,0.289242257,-0.18,1.96,2880,0
HOEM,5/1/97,-22.41561736,8.570530325,-39.16,-3.46,2948,0.367479647,0.230112448,-0.12,1.63,2948,0
HOEM,6/1/97,-22.58361112,8.72355269,-39.56,-5.96,2880,0.387239583,0.236139462,-0.13,1.51,2880,0
HOEM,7/1/97,-30.5190943,8.347154826,-42.85,-11.59,2948,0.47312076,0.264848485,-0.06,1.48,2948,0
HOEM,8/1/97,-31.90235214,8.777099268,-45.43,-10.83,2976,0.497718413,0.298689467,-0.16,2.65,2976,0
HOEM,9/1/97,-25.59093402,9.70420666,-41.54,0.48,2880,0.474947916,0.272822709,-0.91,1.63,2880,0
HOEM,10/1/97,-13.38355848,5.528079692,-29.39,-2.59,2976,0.211451613,0.257439446,-1.59,1.82,2976,0
HOEM,11/1/97,-3.408121085,5.834242224,-20.99,5.65,2874,0.066757133,0.234680264,-1.36,1.19,2874,0
HOEM,12/1/97,-3.141767471,3.148996789,-10.54,3.98,2976,0.046659946,0.281850904,-1.56,2.99,2976,0
HOEM,1/1/98,-3.458904569,2.56781855,-12.03,2.6,2976,0.083645833,0.296298477,-1.79,1.85,2976,0
HOEM,2/1/98,-7.771097468,4.133645961,-19,2.35,2688,0.198582589,0.369014267,-1.56,3.79,2688,0
HOEM,3/1/98,-19.81450628,4.932384726,-34.45,-7.48,2947,0.399935527,0.356536617,-1.46,2.34,2947,0
HOEM,4/1/98,-29.29997572,7.96039718,-43.41,-3.45,2880,0.517385416,0.293547141,-0.34,1.89,2880,0
HOEM,5/1/98,-24.58776545,7.803580099,-39.31,-2,2976,0.428306451,0.260903707,-0.09,1.59,2976,0
HOEM,6/1/98,-18.68345834,5.963827816,-31.49,-4.59,2880,0.388878472,0.23794585,-0.09,2.04,2880,0
HOEM,7/1/98,-25.87331653,8.072734598,-40.62,-7.69,2976,0.397916666,0.25239244,-0.13,1.54,2976,0
HOEM,8/1/98,-27.68086023,8.228690352,-39.8,-7.36,2976,0.51752016,0.260531904,-0.03,1.67,2976,0
HOEM,9/1/98,-31.5877465,7.420601971,-42.63,-2.16,2880,0.489795138,0.29219723,-0.5,2.13,2880,0
HOEM,10/1/98,-16.52745296,5.896821742,-30.42,-0.26,2976,0.263991935,0.305825334,-1.77,1.63,2976,0
HOEM,11/1/98,-9.155241407,4.81737289,-23.49,0.71,2879,0.083240709,0.241083856,-1.93,1.56,2879,0
HOEM,12/1/98,-2.101310486,2.914416013,-10.1,5.91,2976,0.008064516,0.198783402,-0.87,1.29,2976,0
HOEM,1/1/99,-1.163061157,2.147545751,-6.9,6.1,2976,0.001706989,0.233064299,-2.16,1.33,2976,0
HOEM,2/1/99,-8.240364583,4.873193349,-21.81,1.38,2688,0.032540923,0.280332188,-2.13,2,2688,0
HOEM,3/1/99,-21.10597445,5.702931803,-30.85,-5.01,2976,0.421965725,0.389155171,-2.12,3.55,2976,0
HOEM,4/1/99,-27.15290971,7.532345771,-39.72,-5.97,2880,0.373295139,0.238420201,-0.12,1.87,2880,0
HOEM,5/1/99,-29.35102823,8.492034673,-43.21,-5.12,2976,0.507419355,0.262983132,-0.05,1.97,2976,0
HOEM,6/1/99,-23.98455555,7.225805078,-36.96,-4.23,2880,0.380232638,0.267422145,-0.12,1.96,2880,0
HOEM,7/1/99,-22.69893146,8.620333158,-37.87,-5.86,2976,0.366377688,0.226356416,-0.08,1.86,2976,0
HOEM,8/1/99,-30.9544926,8.309595327,-43.59,-10.36,2976,0.526844757,0.324312056,-0.14,1.86,2976,0
HOEM,9/1/99,-22.48219096,8.157927978,-42.31,-0.19,2880,0.413333333,0.300011114,-0.59,1.98,2880,0
HOEM,10/1/99,-17.49920337,5.888917041,-32.21,-1.86,2975,0.262655462,0.312353271,-1.76,1.8,2975,0
HOEM,11/1/99,-6.388236113,3.90481089,-17.82,3.29,2880,-0.025402778,0.184784294,-1.15,0.72,2880,0
HOEM,12/1/99,-2.224919356,1.720597569,-7.28,2.96,2976,-0.119563172,0.198920812,-1.27,0.96,2976,0
HOEM,1/1/00,-3.17150202,2.355391144,-11.2,2.1,2976,-0.144086022,0.216309391,-0.93,0.76,2976,0
HOEM,2/1/00,-8.832191097,3.486307451,-18.34,-1.09,2784,-0.043516523,0.236107396,-1,1.41,2784,0
HOEM,3/1/00,-17.27569219,5.768245545,-31.24,-2.46,2976,0.225053763,0.260454542,-0.65,1.74,2976,0
HOEM,4/1/00,-20.9735035,6.838956884,-33.37,0.57,2880,0.264729167,0.175909475,-0.1,1.4,2880,0
HOEM,5/1/00,-25.98656251,7.725733145,-40.7,-6.22,2976,0.365927419,0.246612165,-0.07,1.5,2976,0
HOEM,6/1/00,-28.288625,10.64954266,-42.03,-1.17,2880,0.413333332,0.230053831,-0.13,1.43,2880,0
HOEM,7/1/00,-23.12512768,9.141546621,-43.36,-4.08,2976,0.290295699,0.169721809,-0.28,1.54,2976,0
HOEM,8/1/00,-26.0553969,8.675909434,-40.72,-5.55,2948,0.34843962,0.235025518,-0.26,1.76,2948,28
HOEM,9/1/00,-26.39118749,9.64737116,-40.25,-5.78,2880,0.387427082,0.255643378,-0.35,1.54,2880,0
HOEM,10/1/00,-21.82182125,5.391546937,-33.4,-9.5,2976,0.270557796,0.269079523,-0.68,1.93,2976,0
HOEM,11/1/00,-6.113620562,5.400514433,-24.07,4.11,2878,0.040364837,0.236220469,-2.2,2.01,2878,2
HOEM,12/1/00,-3.660688844,1.866933252,-8.25,1.82,2976,-0.155591398,0.170262041,-0.82,1.19,2976,0
HOEM,1/1/01,-5.493780243,2.179001691,-10.36,2.24,2976,-0.118797043,0.229263412,-0.94,1.49,2976,0
HOEM,2/1/01,-7.486179317,3.357336917,-16.49,4.33,2688,-0.013303571,0.225295624,-0.9,0.97,2688,0
HOEM,3/1/01,-21.67181452,5.707870967,-29.96,0.92,2976,0.231307123,0.24279494,-0.79,1.48,2976,0
HOEM,4/1/01,-24.07345831,6.890620217,-37.32,-4.67,2880,0.304385416,0.237974339,-0.12,1.42,2880,0
HOEM,5/1/01,-24.20726477,9.217368278,-38.64,-3.28,2976,0.340729166,0.205631568,-0.13,1.28,2976,0
HOEM,6/1/01,-22.93657638,7.641977298,-36.97,-2.96,2880,0.313059028,0.191542567,-0.12,1.33,2880,0
HOEM,7/1/01,-24.85841061,7.208138241,-41.17,-6.14,2976,0.374882392,0.212875281,-0.16,1.34,2976,0
HOEM,8/1/01,-35.24366936,6.118768605,-45.92,-17.07,2976,0.446861559,0.256595215,-0.31,2.61,2976,0
HOEM,9/1/01,-26.7134132,8.22937342,-41.14,-3.9,2880,0.548899305,0.281230247,-0.13,2.2,2880,0
HOEM,10/1/01,-18.43736223,6.886428988,-32.39,-2.83,2976,0.274858871,0.273961011,-0.62,2.41,2976,0
HOEM,11/1/01,-7.922871527,3.971838965,-19.79,0.93,2880,-0.100815972,0.225269999,-0.82,1.74,2880,0
HOEM,12/1/01,-0.70626008,3.063097259,-9.24,8.42,2976,-0.124327957,0.266762636,-1.1,0.79,2976,0
HOEM,1/1/02,-0.973023413,3.361787191,-8.53,9.63,2947,-0.063788187,0.271903385,-2.18,0.96,2946,30
HOEM,2/1/02,-7.455055806,3.829663751,-16.49,1.86,2688,-0.003095238,0.216391945,-0.69,0.95,2688,0
HOEM,3/1/02,-16.72189853,4.827294608,-27.27,-6.21,2976,0.159012097,0.199934355,-0.55,1.49,2976,0
HOEM,4/1/02,-23.28183334,7.65390769,-34.63,-5.73,2880,0.28184375,0.169942995,-0.08,1.34,2880,0
HOEM,5/1/02,-20.28242608,7.27467466,-34.72,-3.77,2976,0.248581989,0.224444199,-0.24,1.46,2976,0
HOEM,6/1/02,-30.75969096,7.702489102,-42.33,-8.45,2880,0.33134375,0.219741946,-0.14,1.53,2880,0
HOEM,7/1/02,-32.08020831,7.944629742,-42.59,-9.53,2976,0.408299731,0.238322143,-0.25,2.6,2976,0
HOEM,8/1/02,-33.16950941,7.884677926,-44.59,-9.44,2976,0.382019489,0.260572841,-0.07,1.89,2976,0
HOEM,9/1/02,-24.77456597,7.289182223,-40.81,-4.77,2880,0.449003472,0.342260755,-0.13,2.2,2880,0
HOEM,10/1/02,-19.66829637,5.141153097,-30.64,-4.84,2976,0.323665994,0.31378176,-0.53,2.45,2976,0
HOEM,11/1/02,-10.60332639,2.551615804,-17.39,-1.34,2880,-0.01478125,0.216084759,-0.69,1.59,2880,0
HOEM,12/1/02,-4.263847444,2.969592503,-12.46,2.41,2976,-0.167913306,0.185501855,-1.28,0.79,2976,0
HOEM,1/1/03,-1.537526881,2.644876376,-7.67,5.13,2976,-0.084018817,0.216431358,-0.78,0.9,2976,0
HOEM,2/1/03,-8.004590769,2.798707544,-15.29,-0.21,2688,-0.048642113,0.203483566,-0.84,0.8,2688,0
HOEM,3/1/03,-19.82755714,6.039128551,-31.5,-5.07,2976,0.315443548,0.273203845,-1.08,2.1,2976,0
HOEM,4/1/03,-27.1934375,6.455454559,-38.43,-2.35,2880,0.403104166,0.27951283,-0.08,1.55,2880,0
HOEM,5/1/03,-20.42776547,8.922313303,-34.07,1.39,2976,0.300393145,0.21976308,-0.12,1.51,2976,0
HOEM,6/1/03,-25.68414929,6.397411972,-37.17,-7.37,2880,0.336465278,0.240277147,-0.24,2.34,2880,0
HOEM,7/1/03,-23.79122313,6.760182993,-39.72,-9.28,2976,0.37610215,0.281344541,-0.11,1.88,2976,0
HOEM,8/1/03,-31.7155712,6.556516438,-43.17,-8.43,2976,0.429616935,0.302910565,-0.25,2.04,2976,0
HOEM,9/1/03,-24.20008679,8.425166731,-41.97,-8.15,2880,0.378520833,0.336564533,-0.2,2.15,2880,0
HOEM,10/1/03,-15.55355174,4.264723882,-28.68,-5.26,2976,0.211048387,0.246938314,-0.96,1.17,2976,0
HOEM,11/1/03,-9.28869792,3.007149111,-18.8,0.53,2880,-0.058868056,0.241936231,-1.07,1.26,2880,0
HOEM,12/1/03,-1.911629703,2.943529385,-9.3,5.67,2976,-0.052510081,0.224159419,-0.85,1.35,2976,0
HOEM,1/1/04,-3.501314285,2.560748587,-10.45,5.62,2975,-0.153623529,0.235102131,-2.38,0.92,2975,1
HOEM,2/1/04,-9.586785209,3.570546616,-20.35,-1.31,2784,-0.004134339,0.270563029,-1.07,1.74,2784,0
HOEM,3/1/04,-24.28667339,4.74991071,-34.08,-10.86,2976,0.400524193,0.331325822,-1.2,1.92,2976,0
HOEM,4/1/04,-25.39727779,5.942081961,-36.97,-9.63,2880,0.501972222,0.31382435,-0.11,1.85,2880,0
HOEM,5/1/04,-27.52964382,8.84991112,-41.66,-2.42,2976,0.414294354,0.254675748,-0.08,1.99,2976,0
HOEM,6/1/04,-23.78009375,8.561771656,-40.31,-3.17,2880,0.302947917,0.247737993,-0.29,1.63,2880,0
HOEM,7/1/04,-35.46678089,6.958175095,-46.5,-8.39,2976,0.364267473,0.22729672,-0.14,1.54,2976,0
HOEM,8/1/04,-31.1192977,7.1811927,-42.91,-6.95,2976,0.407217742,0.291615934,-0.31,1.72,2976,0
HOEM,9/1/04,-28.77660416,5.692195109,-37.37,-11.09,2880,0.388972222,0.270948803,-0.15,2.38,2880,0
HOEM,10/1/04,-19.9187332,7.891562114,-40.79,-4.25,2976,0.346549059,0.348011329,-0.76,1.98,2976,0
HOEM,11/1/04,-6.328788197,4.351780155,-17.67,2.97,2880,-0.079878472,0.24627863,-1.6,1.21,2880,0
HOEM,12/1/04,-1.135174731,1.807986029,-8.13,3.49,2976,-0.116673387,0.207933463,-0.9,1.56,2976,0
HOEM,1/1/05,-2.15029906,2.662232878,-9.24,7.94,2976,-0.105967742,0.222691265,-0.71,1.11,2976,0
HOEM,2/1/05,-8.968790933,4.721425711,-22.22,2.29,2688,0.061755952,0.28723112,-0.71,1.88,2688,0
HOEM,3/1/05,-19.74587703,4.627724563,-28.3,-4.52,2976,0.36579301,0.28458286,-0.4,1.51,2976,0
HOEM,4/1/05,-27.76410416,6.1079607,-38.06,-11.83,2880,0.346263889,0.263870251,-0.14,1.71,2880,0
HOEM,5/1/05,-22.77604837,7.746286076,-38.24,-5.59,2976,0.331831317,0.21649672,-0.09,2.19,2976,0
HOEM,6/1/05,-27.90841316,8.663671115,-43,-2.4,2880,0.328875,0.253581743,-0.23,1.81,2880,0
HOEM,7/1/05,-28.28929097,9.250507509,-42.79,-1.1,2976,0.474727823,0.329678723,-0.06,2.59,2976,0
HOEM,8/1/05,-29.61754368,8.347772676,-45.78,-7.05,2976,0.318007392,0.266467766,-0.35,2.21,2976,0
HOEM,9/1/05,-26.81507982,8.639540454,-40.45,3.97,2880,0.578600693,0.300674511,-0.1,2.45,2880,0
HOEM,10/1/05,-16.78910282,6.898960691,-30.47,-3.15,2976,0.176602823,0.220785119,-0.74,1.2,2976,0
HOEM,11/1/05,-7.878677077,2.812235659,-15.23,-0.16,2880,-0.130711805,0.209015157,-0.84,1.93,2880,0
HOEM,12/1/05,-1.281575941,1.924473228,-8.08,4.24,2976,-0.156979167,0.206053222,-1,0.97,2976,0
HOEM,1/1/06,-2.378017476,2.137206274,-8.58,5.29,2976,-0.14515793,0.223990339,-0.85,1.42,2976,0
HOEM,2/1/06,-8.322459074,3.494540461,-23.98,-1.78,2688,0.032414435,0.291476376,-0.72,1.63,2688,0
HOEM,3/1/06,-20.00408939,5.240289801,-32.58,-5.12,2976,0.260567876,0.273083937,-0.47,2.12,2976,0
HOEM,4/1/06,-29.54533678,6.178918351,-40.35,-10.01,2880,0.404878472,0.276921846,-0.2,2.03,2880,0
HOEM,5/1/06,-30.11636086,9.223496091,-42.01,-1.55,2976,0.326706989,0.237293087,-0.28,1.63,2976,0
HOEM,6/1/06,-22.90655904,9.744784905,-39.83,-3.22,2880,0.336322916,0.224279294,-0.12,1.27,2880,0
HOEM,7/1/06,-34.69339713,6.610194214,-43.36,-10.43,2976,0.580288978,0.309766055,-0.08,2.01,2976,0
HOEM,8/1/06,-20.71392809,6.776472618,-32.78,-4.87,2976,0.339324596,0.276272513,-0.17,1.78,2976,0
HOEM,9/1/06,-23.88141666,8.755806894,-38.55,-4.01,2880,0.309559027,0.267700732,-0.23,1.59,2880,0
HOEM,10/1/06,-21.31126344,4.985712887,-32.83,-6.02,2976,0.345930779,0.316578357,-0.87,1.57,2976,0
HOEM,11/1/06,-9.027750005,5.481165732,-22.15,1.35,2880,0.117534722,0.377849758,-1.09,2.11,2880,0
HOEM,12/1/06,-3.85508065,2.793901044,-10.53,3.29,2976,-0.167426075,0.189859641,-1.02,0.68,2976,0
HOEM,1/1/07,-0.026031587,1.745748374,-5.14,6.52,2976,-0.026055108,0.241573613,-0.99,1.17,2976,0
HOEM,2/1/07,-9.595885421,5.352085807,-25.96,-0.26,2688,-0.001168155,0.28621234,-0.98,1.8,2688,0
HOEM,3/1/07,-18.92528898,6.035566528,-29.93,-1.59,2976,0.261854839,0.256593037,-0.75,1.5,2976,0
HOEM,4/1/07,-24.75395834,7.421655851,-39.16,-6.84,2880,0.37761111,0.272031812,-0.11,1.93,2880,0
HOEM,5/1/07,-21.71319219,8.239994531,-36.06,-3.3,2976,0.446310483,0.277276847,-0.32,1.72,2976,0
HOEM,6/1/07,-20.71247222,8.018732317,-38.67,-1.92,2880,0.297003472,0.191679693,-0.11,1.37,2880,0
HOEM,7/1/07,-23.55927417,7.983873053,-39.67,-4.1,2976,0.345601478,0.193902447,-0.17,2.09,2976,0
HOEM,8/1/07,-23.67772848,7.02129996,-36.97,-0.33,2976,0.33766465,0.219359088,-0.23,1.56,2976,0
HOEM,9/1/07,-21.39999653,5.923058901,-34.72,-4.87,2880,0.285673611,0.207763269,-0.13,1.73,2880,0
HOEM,10/1/07,-20.82002688,5.615398957,-35.8,-7.63,2976,0.257563844,0.351652825,-0.65,3.36,2976,0
HOEM,11/1/07,-9.601368058,6.900280696,-31.4,-0.27,2880,0.078333333,0.341800394,-0.8,3.3,2880,0
HOEM,12/1/07,-2.02575126,3.428880033,-10.58,5.88,2975,-0.082063866,0.217163755,-1.04,0.78,2975,0
HOEM,1/1/08,-1.93249664,2.18376823,-7.57,3.3,2976,-0.066797715,0.214181563,-1.23,0.97,2976,0
HOEM,2/1/08,-9.827758621,3.426976518,-17.52,-1.4,2784,-0.03981681,0.171547465,-0.58,1.55,2784,0
HOEM,3/1/08,-18.36966733,7.423805607,-30.14,2.37,2976,0.210342742,0.204020472,-0.43,1.81,2976,0
HOEM,4/1/08,-20.81937848,6.015584235,-30.95,-3.34,2880,0.306353426,0.212202188,-0.1,2,2671,209
HOEM,5/1/08,-25.33341062,6.920315518,-37.69,-4.75,2976,0.368176925,0.227238763,-0.06,1.93,2973,3
HOEM,6/1/08,-18.58188194,7.151683466,-32.51,-2.09,2880,0.233178025,0.161188362,-0.12,1.09,2876,4
HOEM,7/1/08,-29.76651206,7.826631215,-41.06,-6.81,2976,0.404159945,0.236490943,-0.16,2,2976,0
HOEM,8/1/08,-34.5714852,5.90613706,-44.28,-13.94,2976,0.40687164,0.262670433,-0.19,1.93,2976,0
HOEM,9/1/08,-18.47463541,7.587254912,-39.05,-5.55,2880,0.299746528,0.173071385,-0.23,1.32,2880,0
HOEM,10/1/08,-17.89007392,4.610869682,-28.91,-5.75,2976,0.079872312,0.2156698,-0.74,1.25,2976,0
HOEM,11/1/08,-9.684017361,4.104476375,-19.12,1.01,2880,-0.194614583,0.213617165,-1.1,2.13,2880,0
HOEM,12/1/08,-1.867735214,2.430620555,-8.53,5.29,2976,-0.212997312,0.210464443,-1.2,1.09,2976,0
HOEM,1/1/09,-2.307533602,2.147819085,-8.15,3.14,2976,-0.145060484,0.240877101,-1.54,1.07,2976,0
HOEM,2/1/09,-11.73669271,6.178021384,-25.58,-1.37,2688,0.045900297,0.304285616,-1.09,2.16,2688,0
HOEM,3/1/09,-21.66807126,5.398601157,-30.58,-4.99,2976,0.382405913,0.319167915,-0.54,1.92,2976,0
HOEM,4/1/09,-19.09209028,6.595679252,-32.34,-7.09,2880,0.322795138,0.287271481,-0.09,2.28,2880,0
HOEM,5/1/09,-25.88983533,9.065351025,-40.23,-5.05,2976,0.398608871,0.257937418,-0.12,1.59,2976,0
HOEM,6/1/09,-24.2265243,8.70506747,-40.93,-4.63,2880,0.359,0.208172818,-0.09,2.69,2880,0
HOEM,7/1/09,-26.07196236,8.678363339,-42.48,-3.41,2976,0.337163978,0.255431,-0.15,2.29,2976,0
HOEM,8/1/09,-27.98432794,8.053469841,-42.45,-11.28,2976,0.315655242,0.24779927,-0.22,2.2,2976,0
HOEM,9/1/09,-25.75545833,8.985364026,-43.31,-0.93,2880,0.437144876,0.299419925,-0.28,1.83,2830,50
HOEM,10/1/09,-20.09958334,5.03137453,-31.61,-4.1,2976,0.171918683,0.259770904,-0.55,1.16,2976,0
HOEM,11/1/09,-6.275510417,4.990647508,-21.48,5.56,2880,0.080465278,0.346427595,-1.09,2.34,2880,0
HOEM,12/1/09,-2.241149194,2.150193509,-7.8,4.16,2976,-0.227671371,0.226252601,-1.51,0.62,2976,0
HOEM,1/1/10,-2.68828293,2.011686256,-7.99,2.79,2976,-0.157792339,0.233645566,-1.27,1.36,2976,0
HOEM,2/1/10,-8.854810271,4.53001763,-21.23,1.29,2688,0.032786458,0.292791086,-0.84,1.5,2688,0
HOEM,3/1/10,-18.01960012,7.075500604,-33.51,-1.1,2976,0.227765457,0.287961155,-0.56,1.63,2976,0
HOEM,4/1/10,-22.0350868,5.201189823,-31.42,-6.8,2880,0.33975,0.249774208,-0.18,2.15,2880,0
HOEM,5/1/10,-26.1530074,8.396723031,-42.21,-7.87,2976,0.373155241,0.255743878,-0.11,2.01,2976,0